Weather History for Ravenna, OH

Change the Weather History Date:

Wednesday, March 14, 2012

  Actual Average (KCAK) Record (KCAK)
Temperature  
Mean Temperature 54 °F 37 °F  
Max Temperature 72 °F 46 °F 77 °F (1990)
Min Temperature 36 °F 28 °F 7 °F (1895)
Degree Days  
Heating Degree Days 11 28  
Month to date heating degree days 427  
Since 1 July heating degree days 4971  
Cooling Degree Days 0 0  
Month to date cooling degree days 0  
Year to date cooling degree days 0  
Growing Degree Days 4 (Base 50)    
Moisture  
Dew Point 37 °F    
Average Humidity 51    
Maximum Humidity 84    
Minimum Humidity 30    
Precipitation  
Precipitation 0.00 in 0.10 in 1.46 in (1973)
Month to date precipitation 1.24  
Year to date precipitation 6.16  
Snow  
Snow - 0.20 in - ()
Month to date snowfall 4.5  
Since 1 July snowfall 41.0  
Snow Depth -    
Sea Level Pressure  
Sea Level Pressure 30.15 in    
Wind  
Wind Speed 3 mph ()    
Max Wind Speed 10 mph    
Max Gust Speed -    
Visibility 10.0 miles    
Events      
T = Trace of Precipitation, MM = Missing Value Source: Averaged Metar Reports

Daily Weather History Graph

Daily Weather History Graph

Search for Another Location

Airport:

Trip Planner

Search our weather history database for the weather conditions in past years. The results will help you decide how hot, cold, wet, or windy it might be!

Date:

Astronomy

Mar. 14, 2012 Rise Set
Actual Time 7:37 AM EDT 7:31 PM EDT
Civil Twilight 7:10 AM EDT 7:58 PM EDT
Nautical Twilight 6:38 AM EDT 8:30 PM EDT
Astronomical Twilight 6:05 AM EDT 9:03 PM EDT
Moon 2:08 AM EDT (3/14) 11:43 AM EDT (3/14)
Length of Visible Light 12h 48m
Length of Day
11h 53m
Waning Gibbous, 54% of the Moon is Illuminated
Mar 14
Waning Gibbous
Mar 14
Last Quarter
Mar 22
New
Mar 30
First Quarter
Apr 6
Full

Hourly Weather History & Observations

Time (EDT) Temp. Windchill Dew Point Humidity Pressure Visibility Wind Dir Wind Speed Gust Speed Precip Events Conditions
12:00 AM 53.4 °F - 34.7 °F 49% 30.11 in 10.0 mi West 4.6 mph - N/A   Clear
12:23 AM 51.1 °F - 34.7 °F 54% 30.12 in 10.0 mi West 3.5 mph - N/A   Clear
12:42 AM 51.3 °F - 35.1 °F 54% 30.12 in 10.0 mi West 4.6 mph - N/A   Clear
1:00 AM 52.0 °F - 33.6 °F 50% 30.12 in 10.0 mi West 3.5 mph - N/A   Clear
1:23 AM 48.0 °F - 35.1 °F 61% 30.12 in 10.0 mi West 3.5 mph - N/A   Clear
1:42 AM 48.2 °F - 34.3 °F 59% 30.12 in 10.0 mi West 3.5 mph - N/A   Clear
2:00 AM 45.3 °F - 34.3 °F 65% 30.13 in 10.0 mi Calm Calm - N/A   Clear
2:22 AM 47.3 °F - 33.1 °F 58% 30.13 in 10.0 mi Calm Calm - N/A   Clear
2:42 AM 47.3 °F - 32.9 °F 57% 30.13 in 10.0 mi Calm Calm - N/A   Clear
3:00 AM 47.5 °F - 32.5 °F 56% 30.13 in 10.0 mi West 4.6 mph - N/A   Clear
3:23 AM 46.4 °F - 32.2 °F 58% 30.13 in 10.0 mi Calm Calm - N/A   Clear
3:42 AM 46.4 °F 45.2 °F 32.0 °F 57% 30.13 in 10.0 mi West 3.5 mph - N/A   Clear
4:22 AM 45.3 °F 43.0 °F 32.0 °F 60% 30.13 in 10.0 mi West 4.6 mph - N/A   Clear
4:42 AM 45.0 °F 42.6 °F 32.0 °F 60% 30.13 in 10.0 mi West 4.6 mph - N/A   Clear
5:00 AM 43.9 °F - 32.0 °F 63% 30.13 in 10.0 mi Calm Calm - N/A   Clear
5:23 AM 42.8 °F - 32.9 °F 68% 30.14 in 10.0 mi Calm Calm - N/A   Clear
5:42 AM 43.2 °F - 32.0 °F 65% 30.14 in 10.0 mi Calm Calm - N/A   Clear
6:00 AM 43.3 °F - 32.0 °F 64% 30.14 in 10.0 mi Calm Calm - N/A   Clear
6:23 AM 40.3 °F - 32.0 °F 72% 30.15 in 10.0 mi Calm Calm - N/A   Clear
6:42 AM 36.9 °F - 32.0 °F 83% 30.15 in 10.0 mi Calm Calm - N/A   Clear
7:00 AM 38.3 °F 34.8 °F 32.0 °F 78% 30.15 in 10.0 mi ENE 4.6 mph - N/A   Clear
7:23 AM 38.5 °F - 32.9 °F 80% 30.16 in 10.0 mi Calm Calm - N/A   Clear
7:42 AM 38.5 °F - 32.0 °F 78% 30.16 in 10.0 mi Calm Calm - N/A   Clear
8:00 AM 36.7 °F - 32.2 °F 84% 30.17 in 10.0 mi Calm Calm - N/A   Clear
8:23 AM 38.1 °F - 33.3 °F 83% 30.19 in 10.0 mi Calm Calm - N/A   Clear
8:42 AM 39.7 °F - 34.0 °F 80% 30.19 in 10.0 mi Calm Calm - N/A   Clear
9:00 AM 43.2 °F - 36.3 °F 77% 30.19 in 10.0 mi Calm Calm - N/A   Clear
9:22 AM 46.9 °F - 36.3 °F 67% 30.20 in 10.0 mi ESE 3.5 mph - N/A   Clear
9:42 AM 49.6 °F - 31.6 °F 50% 30.21 in 10.0 mi Calm Calm - N/A   Clear
10:00 AM 51.1 °F - 31.5 °F 47% 30.21 in 10.0 mi ESE 5.8 mph - N/A   Clear
10:23 AM 52.7 °F - 31.5 °F 44% 30.22 in 10.0 mi ESE 4.6 mph - N/A   Clear
10:42 AM 54.5 °F - 32.0 °F 42% 30.22 in 10.0 mi SE 5.8 mph - N/A   Clear
11:00 AM 56.5 °F - 33.3 °F 42% 30.21 in 10.0 mi SE 5.8 mph - N/A   Clear
11:23 AM 57.4 °F - 29.8 °F 35% 30.21 in 10.0 mi SE 6.9 mph - N/A   Clear
11:42 AM 58.8 °F - 30.2 °F 34% 30.21 in 10.0 mi SE 4.6 mph - N/A   Clear
12:00 PM 60.4 °F - 29.1 °F 31% 30.20 in 10.0 mi SE 6.9 mph - N/A   Clear
12:22 PM 61.7 °F - 29.8 °F 30% 30.20 in 10.0 mi SE 3.5 mph - N/A   Clear
12:42 PM 62.8 °F - 30.9 °F 30% 30.20 in 10.0 mi SE 6.9 mph - N/A   Clear
1:00 PM 64.4 °F - 32.2 °F 30% 30.19 in 10.0 mi SSE 5.8 mph - N/A   Clear
1:23 PM 65.3 °F - 33.3 °F 30% 30.18 in 10.0 mi SW 5.8 mph - N/A   Clear
1:42 PM 66.4 °F - 34.7 °F 31% 30.18 in 10.0 mi SSE 6.9 mph - N/A   Clear
2:00 PM 67.3 °F - 36.1 °F 32% 30.17 in 10.0 mi SSW 4.6 mph - N/A   Clear
2:23 PM 67.6 °F - 36.7 °F 32% 30.16 in 10.0 mi SSW 4.6 mph - N/A   Clear
2:42 PM 69.3 °F - 38.1 °F 32% 30.15 in 10.0 mi South 4.6 mph - N/A   Clear
3:00 PM 69.8 °F - 39.4 °F 33% 30.15 in 10.0 mi WSW 5.8 mph - N/A   Clear
3:23 PM 70.7 °F - 41.9 °F 35% 30.14 in 10.0 mi SW 4.6 mph - N/A   Clear
3:42 PM 70.7 °F - 41.7 °F 35% 30.13 in 10.0 mi SW 8.1 mph - N/A   Clear
4:00 PM 71.4 °F - 41.0 °F 33% 30.13 in 10.0 mi WSW 9.2 mph - N/A   Clear
4:23 PM 71.8 °F - 41.9 °F 34% 30.13 in 10.0 mi WSW 8.1 mph - N/A   Clear
4:42 PM 72.0 °F - 42.8 °F 35% 30.13 in 10.0 mi SW 8.1 mph - N/A   Clear
5:00 PM 72.3 °F - 41.9 °F 33% 30.13 in 10.0 mi WSW 10.4 mph - N/A   Clear
5:23 PM 72.3 °F - 42.3 °F 34% 30.13 in 10.0 mi SW 4.6 mph - N/A   Clear
5:42 PM 72.5 °F - 42.1 °F 33% 30.12 in 10.0 mi SSW 6.9 mph - N/A   Clear
6:00 PM 72.5 °F - 42.8 °F 34% 30.12 in 10.0 mi South 4.6 mph - N/A   Clear
6:22 PM 72.3 °F - 43.9 °F 36% 30.12 in 10.0 mi SW 5.8 mph - N/A   Clear
6:42 PM 71.6 °F - 44.4 °F 38% 30.12 in 10.0 mi Calm Calm - N/A   Clear
7:00 PM 71.1 °F - 44.1 °F 38% 30.11 in 10.0 mi South 3.5 mph - N/A   Clear
7:23 PM 69.8 °F - 44.6 °F 40% 30.12 in 10.0 mi Calm Calm - N/A   Clear
7:42 PM 68.7 °F - 43.7 °F 40% 30.12 in 10.0 mi Calm Calm - N/A   Clear
8:00 PM 66.2 °F - 44.2 °F 45% 30.12 in 10.0 mi Calm Calm - N/A   Clear
8:22 PM 63.5 °F - 44.1 °F 49% 30.12 in 10.0 mi Calm Calm - N/A   Clear
8:42 PM 62.6 °F - 43.9 °F 50% 30.13 in 10.0 mi Calm Calm - N/A   Clear
9:00 PM 60.8 °F - 44.2 °F 54% 30.12 in 10.0 mi Calm Calm - N/A   Clear
9:23 PM 60.3 °F - 44.1 °F 55% 30.13 in 10.0 mi Calm Calm - N/A   Clear
9:42 PM 57.2 °F - 44.8 °F 63% 30.13 in 10.0 mi Calm Calm - N/A   Clear
10:00 PM 55.9 °F - 44.1 °F 64% 30.13 in 10.0 mi Calm Calm - N/A   Clear
10:23 PM 54.1 °F - 44.1 °F 69% 30.13 in 10.0 mi Calm Calm - N/A   Clear
10:42 PM 55.8 °F - 43.9 °F 64% 30.13 in 10.0 mi Calm Calm - N/A   Clear
11:00 PM 56.3 °F - 44.4 °F 64% 30.13 in 10.0 mi Calm Calm - N/A   Clear
11:23 PM 55.6 °F - 43.7 °F 64% 30.13 in 10.0 mi Calm Calm - N/A   Clear
11:42 PM 55.8 °F - 44.1 °F 65% 30.13 in 10.0 mi Calm Calm - N/A   Clear